Weather History for New Bedford, MA

Change the Weather History Date:

Tuesday, March 18, 2014

  Actual Average Record
Temperature  
Mean Temperature 26 °F -  
Max Temperature 39 °F 43 °F 72 °F (2011)
Min Temperature 12 °F 30 °F 8 °F (1967)
Degree Days  
Heating Degree Days 40    
Moisture  
Dew Point 14 °F    
Average Humidity 61    
Maximum Humidity 92    
Minimum Humidity 33    
Precipitation  
Precipitation 0.00 in - - ()
Sea Level Pressure  
Sea Level Pressure 30.28 in    
Wind  
Wind Speed 4 mph (NE)    
Max Wind Speed 12 mph    
Max Gust Speed 17 mph    
Visibility 10 miles    
Events      
Averages and records for this station are not official NWS values.
T = Trace of Precipitation, MM = Missing Value Source: NWS Daily Summary

Daily Weather History Graph

Daily Weather History Graph

Search for Another Location

Airport:

Trip Planner

Search our weather history database for the weather conditions in past years. The results will help you decide how hot, cold, wet, or windy it might be!

Date:

Astronomy

Mar. 18, 2014 Rise Set
Actual Time 6:50 AM EDT 6:53 PM EDT
Civil Twilight 6:22 AM EDT 7:21 PM EDT
Nautical Twilight 5:50 AM EDT 7:53 PM EDT
Astronomical Twilight 5:17 AM EDT 8:26 PM EDT
Moon 9:10 PM EDT (3/18) 7:36 AM EDT (3/18)
Length of Visible Light 12h 58m
Length of Day
12h 03m
Waning Gibbous, 96% of the Moon is Illuminated
Mar 18
Waning Gibbous
Mar 23
Last Quarter
Mar 30
New
Apr 7
First Quarter
Apr 15
Full

Hourly Weather History & Observations

Time (EDT) Temp. Windchill Dew Point Humidity Pressure Visibility Wind Dir Wind Speed Gust Speed Precip Events Conditions
12:53 AM 15.1 °F - 12.0 °F 88% 30.16 in 10.0 mi Calm Calm - N/A   Clear
1:53 AM 15.1 °F - 10.9 °F 84% 30.17 in 10.0 mi Calm Calm - N/A   Clear
2:53 AM 12.0 °F - 10.0 °F 92% 30.18 in 10.0 mi Calm Calm - N/A   Clear
3:53 AM 15.1 °F 9.4 °F 12.0 °F 88% 30.19 in 10.0 mi NNW 3.5 mph - N/A   Clear
4:53 AM 16.0 °F - 10.9 °F 81% 30.21 in 10.0 mi Calm Calm - N/A   Clear
5:53 AM 16.0 °F - 9.0 °F 74% 30.22 in 10.0 mi Calm Calm - N/A   Clear
6:53 AM 17.1 °F 10.0 °F 8.1 °F 68% 30.23 in 10.0 mi NNW 4.6 mph - N/A   Clear
7:53 AM 19.9 °F 12.1 °F 9.0 °F 62% 30.26 in 10.0 mi NNW 5.8 mph - N/A   Clear
8:53 AM 26.1 °F 21.9 °F 12.0 °F 55% 30.31 in 10.0 mi Variable 3.5 mph - N/A   Clear
9:53 AM 30.9 °F 23.5 °F 14.0 °F 50% 30.30 in 10.0 mi NNE 8.1 mph - N/A   Clear
10:53 AM 36.0 °F 29.6 °F 17.1 °F 46% 30.30 in 10.0 mi ENE 8.1 mph 16.1 mph N/A   Clear
11:53 AM 36.0 °F 31.1 °F 16.0 °F 44% 30.31 in 10.0 mi ESE 5.8 mph - N/A   Clear
12:53 PM 39.0 °F 31.8 °F 16.0 °F 39% 30.28 in 10.0 mi ENE 11.5 mph 17.3 mph N/A   Clear
1:53 PM 39.9 °F 35.1 °F 12.9 °F 33% 30.29 in 10.0 mi North 6.9 mph - N/A   Clear
2:53 PM 39.0 °F 34.8 °F 12.9 °F 34% 30.29 in 10.0 mi Variable 5.8 mph - N/A   Clear
3:53 PM 39.0 °F 32.3 °F 14.0 °F 36% 30.29 in 10.0 mi ENE 10.4 mph - N/A   Clear
4:53 PM 37.9 °F 30.9 °F 16.0 °F 41% 30.31 in 10.0 mi East 10.4 mph - N/A   Clear
5:53 PM 35.1 °F 27.4 °F 16.0 °F 46% 30.32 in 10.0 mi ENE 10.4 mph - N/A   Clear
6:53 PM 30.9 °F 22.2 °F 16.0 °F 54% 30.32 in 10.0 mi ENE 10.4 mph - N/A   Clear
7:53 PM 28.0 °F 21.7 °F 17.1 °F 63% 30.33 in 10.0 mi ENE 5.8 mph - N/A   Clear
8:53 PM 27.0 °F 21.6 °F 17.1 °F 66% 30.35 in 10.0 mi East 4.6 mph - N/A   Clear
9:53 PM 26.1 °F 21.9 °F 18.0 °F 71% 30.35 in 10.0 mi NE 3.5 mph - N/A   Clear
10:53 PM 25.0 °F 20.7 °F 18.0 °F 75% 30.34 in 10.0 mi NNE 3.5 mph - N/A   Clear
11:53 PM 24.1 °F - 18.0 °F 77% 30.33 in 10.0 mi Calm Calm - N/A   Clear